Date,TemperatureHighF,TemperatureAvgF,TemperatureLowF,DewpointHighF,DewpointAvgF,DewpointLowF,HumidityHigh,HumidityAvg,HumidityLow,PressureMaxIn,PressureMinIn,WindSpeedMaxMPH,WindSpeedAvgMPH,GustSpeedMaxMPH,PrecipitationSumIn
2012-1-1,80.5,67.2,56.9,68.0,61.9,55.0,95,83,60,30.29,30.18,13,3,17,0.00
2012-1-2,74.1,63.8,57.3,68.0,58.0,47.0,96,82,57,30.25,30.12,21,6,28,0.00
2012-1-3,61.4,54.2,42.2,49.0,37.1,25.0,78,55,29,30.39,30.21,28,7,33,0.00
2012-1-4,66.1,49.3,36.6,46.0,36.0,28.0,73,61,47,30.43,30.29,13,4,14,0.00
2012-1-5,70.1,54.4,41.2,50.0,41.2,32.0,84,63,27,30.35,30.22,11,3,15,0.00
2012-1-6,75.0,57.6,46.3,59.0,50.6,44.0,94,79,50,30.26,30.15,9,2,15,0.00
2012-1-7,74.2,60.7,48.7,60.0,53.2,46.0,94,78,52,30.21,30.13,10,2,14,0.00
2012-1-8,83.4,64.6,51.4,62.0,56.4,49.0,93,77,45,30.25,30.15,9,3,15,0.00
2012-1-9,83.8,67.2,56.5,66.0,60.2,54.0,93,79,51,30.22,30.09,12,4,16,0.00
2012-1-10,81.3,68.5,57.5,67.0,60.8,56.0,95,78,54,30.11,29.97,16,4,21,0.00
2012-1-11,72.4,69.3,64.1,69.0,66.3,61.0,93,90,86,29.99,29.83,35,8,45,0.02
2012-1-12,75.6,70.0,64.3,68.0,64.4,62.0,95,83,66,30.01,29.88,13,3,16,0.02
2012-1-13,74.1,66.7,59.9,66.0,60.4,50.0,93,81,64,30.21,30.02,14,5,17,0.00
2012-1-14,65.4,57.1,49.8,50.0,42.5,36.0,77,60,37,30.38,30.22,14,5,21,0.00
2012-1-15,78.0,57.9,41.5,44.0,39.7,35.0,78,55,28,30.47,30.34,16,4,22,0.00
2012-1-16,78.8,62.3,49.7,58.0,51.1,41.0,81,68,48,30.43,30.30,16,7,26,0.00
2012-1-17,78.2,64.9,52.7,62.0,57.0,50.0,92,77,55,30.33,30.17,14,3,22,0.00
2012-1-18,76.2,66.3,57.1,67.0,61.9,55.0,94,86,70,30.19,30.03,11,3,23,0.00
2012-1-19,82.5,68.6,56.8,65.0,54.8,43.0,94,66,31,30.17,30.02,18,5,18,0.00
2012-1-20,82.7,65.3,53.1,61.0,54.6,46.0,91,70,38,30.22,30.12,11,4,17,0.00
2012-1-21,77.5,66.8,55.1,63.0,58.7,52.0,93,76,54,30.16,30.06,13,3,20,0.00
2012-1-22,84.1,67.6,56.6,66.0,59.7,54.0,93,77,44,30.15,30.07,10,2,16,0.00
2012-1-23,80.6,68.8,59.9,69.0,63.2,57.0,95,83,59,30.13,30.07,13,4,21,0.00
2012-1-24,81.7,69.8,61.8,71.0,64.9,60.0,96,85,60,30.18,30.09,11,3,17,0.00
2012-1-25,84.5,73.3,63.6,70.0,65.7,62.0,95,78,56,30.17,30.07,15,5,18,0.00
2012-1-26,81.5,72.8,66.1,71.0,66.6,63.0,94,82,58,30.11,29.99,23,9,29,0.00
2012-1-27,75.2,70.5,66.1,72.0,67.8,64.0,94,91,81,30.09,29.98,15,5,38,0.15
2012-1-28,79.3,68.3,64.2,70.0,63.5,60.0,95,85,65,30.18,30.07,13,5,19,0.15
2012-1-29,83.1,69.5,62.8,63.0,59.2,56.0,85,71,51,30.27,30.16,11,6,17,0.00
2012-1-30,83.0,67.5,57.4,64.0,58.0,53.0,86,73,51,30.31,30.21,21,10,27,0.00
2012-1-31,86.4,70.8,60.3,65.0,60.3,57.0,87,71,46,30.31,30.19,16,8,22,0.00
2012-2-1,84.8,70.9,62.0,68.0,64.2,59.0,92,80,53,30.25,30.13,11,4,16,0.00
2012-2-2,81.3,71.1,64.3,71.0,66.6,62.0,95,86,68,30.18,30.08,10,4,14,0.00
2012-2-3,81.0,73.6,67.8,69.0,66.7,64.0,89,79,64,30.20,30.10,14,7,22,0.00
2012-2-4,86.4,74.6,68.0,70.0,66.7,65.0,90,77,54,30.16,30.04,18,8,23,0.00
2012-2-5,78.2,71.6,66.5,72.0,68.0,65.0,95,88,75,30.07,29.99,11,3,12,0.28
2012-2-6,81.3,71.9,68.6,73.0,68.7,67.0,95,90,70,30.08,29.98,16,4,21,0.03
2012-2-7,78.7,71.9,67.7,73.0,69.1,66.0,97,91,78,30.05,29.96,14,5,17,0.01
2012-2-8,76.1,70.6,67.2,70.0,66.8,65.0,93,88,79,30.12,30.01,14,5,19,0.01
2012-2-9,83.3,70.2,62.7,68.0,61.9,55.0,87,75,59,30.14,30.04,14,7,18,0.00
2012-2-10,79.8,70.5,65.9,73.0,67.6,64.0,95,90,79,30.08,29.92,12,6,16,0.00
2012-2-11,71.4,66.2,57.5,68.0,60.0,49.0,95,81,61,30.14,29.91,21,8,31,0.41
2012-2-12,64.4,55.0,46.3,35.0,32.6,30.0,65,44,30,30.30,30.21,16,6,24,0.00
2012-2-13,74.4,57.2,42.6,55.0,45.4,31.0,76,66,48,30.26,30.11,13,6,17,0.00
2012-2-14,77.0,66.4,55.3,63.0,58.1,51.0,88,75,58,30.14,30.07,18,5,23,0.00
2012-2-15,82.4,68.7,58.5,67.0,62.4,56.0,94,81,57,30.22,30.11,11,3,16,0.00
2012-2-16,79.9,69.8,61.6,69.0,64.6,59.0,94,84,62,30.20,30.09,17,4,22,0.00
2012-2-17,79.0,71.0,64.1,71.0,66.6,62.0,95,86,71,30.11,30.02,12,2,18,0.00
2012-2-18,78.3,70.7,63.8,71.0,66.6,62.0,95,87,73,30.04,29.91,12,4,17,0.00
2012-2-19,79.1,74.1,69.2,74.0,71.0,65.0,95,90,84,29.98,29.89,23,11,27,0.00
2012-2-20,79.5,69.4,61.1,65.0,58.8,54.0,86,70,51,30.18,29.97,14,6,23,0.00
2012-2-21,80.6,67.3,55.7,65.0,59.6,53.0,92,78,57,30.22,30.12,10,5,18,0.00
2012-2-22,76.9,70.0,60.9,67.0,64.4,58.0,93,83,71,30.15,29.98,16,5,19,0.00
2012-2-23,79.1,72.4,65.2,72.0,69.0,64.0,95,89,79,30.02,29.95,17,6,24,0.00
2012-2-24,81.8,75.2,68.2,75.0,71.3,67.0,96,88,74,30.05,29.96,21,7,26,0.01
2012-2-25,86.4,74.3,65.7,75.0,67.8,57.0,96,81,62,30.19,30.03,16,7,25,0.01
2012-2-26,84.4,72.2,62.8,71.0,64.2,55.0,89,76,64,30.25,30.16,17,9,21,0.01
2012-2-27,84.8,74.8,69.0,73.0,70.0,66.0,93,85,64,30.29,30.18,18,6,28,1.91
2012-2-28,90.5,74.9,66.8,75.0,69.8,65.0,97,85,54,30.28,30.15,11,4,16,0.06
2012-2-29,83.1,74.3,67.0,73.0,69.6,65.0,95,85,68,30.22,30.10,13,5,17,0.01
2012-3-1,81.0,73.2,67.2,73.0,69.3,66.0,96,88,69,30.14,30.03,12,3,19,0.01
2012-3-2,81.9,74.5,66.5,73.0,70.1,65.0,95,86,73,30.06,29.97,17,6,24,0.00
2012-3-3,81.7,76.2,70.0,75.0,72.1,68.0,95,87,77,29.99,29.86,26,10,32,0.00
2012-3-4,77.6,69.7,56.0,75.0,56.7,38.0,92,66,36,30.23,29.83,30,12,46,0.07
2012-3-5,81.4,63.9,50.9,48.0,42.2,38.0,67,48,26,30.37,30.22,14,6,22,0.07
2012-3-6,83.0,66.9,54.2,61.0,53.7,46.0,78,64,41,30.38,30.27,24,8,32,0.00
2012-3-7,84.4,71.9,64.3,69.0,63.8,59.0,86,76,58,30.33,30.22,18,10,28,0.00
2012-3-8,86.1,74.3,66.5,74.0,68.6,64.0,94,83,64,30.25,30.13,17,6,24,0.00
2012-3-9,83.2,74.1,66.3,73.0,68.7,65.0,95,84,65,30.20,30.10,11,4,17,0.00
2012-3-10,83.1,74.9,67.6,72.0,68.7,66.0,95,81,64,30.19,30.11,13,4,19,0.00
2012-3-11,88.3,75.1,67.3,71.0,67.9,65.0,94,79,50,30.26,30.15,16,5,18,0.01
2012-3-12,86.0,74.3,66.5,68.0,64.9,60.0,92,74,51,30.27,30.16,17,7,24,0.01
2012-3-13,87.9,73.9,63.4,68.0,62.6,59.0,91,70,46,30.24,30.13,16,6,19,0.01
2012-3-14,88.5,75.0,62.6,69.0,63.7,59.0,89,70,48,30.22,30.11,15,6,20,0.00
2012-3-15,85.8,73.1,65.1,73.0,66.2,61.0,92,80,58,30.21,30.13,18,6,25,0.00
2012-3-16,87.6,71.8,65.5,71.0,66.6,63.0,94,84,53,30.21,30.12,13,5,17,0.77
2012-3-17,88.7,74.1,63.4,70.0,64.9,61.0,95,75,41,30.23,30.11,14,5,18,0.01
2012-3-18,88.6,73.3,62.5,69.0,64.3,60.0,93,75,45,30.24,30.11,12,5,18,0.01
2012-3-19,88.0,74.3,65.2,69.0,65.4,60.0,92,75,45,30.18,30.04,14,5,20,0.00
2012-3-20,87.0,74.3,65.0,70.0,64.1,60.0,90,72,49,30.10,30.01,14,5,21,0.00
2012-3-21,85.7,75.0,65.7,72.0,67.5,63.0,93,78,59,30.12,30.01,20,7,23,0.00
2012-3-22,87.9,76.9,70.4,72.0,69.2,65.0,92,78,54,30.14,30.03,20,7,25,0.00
2012-3-23,82.4,75.1,67.4,70.0,67.9,64.0,93,79,61,30.13,30.02,15,4,17,0.00
2012-3-24,80.5,74.6,66.8,71.0,68.4,64.0,92,81,66,30.07,29.96,17,4,19,0.00
2012-3-25,77.9,74.8,72.3,71.0,68.7,62.0,90,81,69,29.99,29.87,22,8,27,0.06
2012-3-26,79.4,73.4,64.3,66.0,61.1,56.0,89,66,47,30.02,29.92,16,6,21,0.06
2012-3-27,88.2,71.7,61.1,70.0,63.0,57.0,89,75,49,30.16,30.01,12,5,17,0.02
2012-3-28,89.1,73.6,62.8,68.0,61.9,57.0,88,69,35,30.17,30.05,16,6,19,0.02
2012-3-29,80.8,72.8,63.7,67.0,64.4,61.0,93,76,61,30.09,29.99,11,3,16,0.00
2012-3-30,85.2,72.9,62.7,69.0,64.1,58.0,86,75,53,30.08,29.99,19,4,25,0.00
2012-3-31,81.6,74.6,66.6,75.0,69.9,63.0,92,85,76,30.02,29.91,17,5,24,0.00
2012-4-1,81.3,76.2,69.8,73.0,69.8,67.0,93,81,67,29.98,29.89,15,4,18,0.00
2012-4-2,82.0,74.3,65.5,72.0,67.2,63.0,95,79,52,29.95,29.88,14,3,21,0.00
2012-4-3,83.9,75.1,65.2,70.0,66.8,63.0,94,77,53,29.99,29.91,11,3,16,0.00
2012-4-4,84.2,76.1,68.4,74.0,70.1,66.0,93,82,62,29.99,29.84,16,4,23,0.00
2012-4-5,81.7,76.3,69.7,74.0,71.6,68.0,93,85,77,29.91,29.77,22,8,25,0.02
2012-4-6,80.8,77.8,71.9,76.0,69.4,61.0,93,75,64,29.93,29.75,19,9,27,0.56
2012-4-7,88.9,74.1,63.2,68.0,63.2,59.0,87,70,49,30.11,29.94,16,8,23,0.56
2012-4-8,86.5,72.8,62.3,63.0,60.7,57.0,84,67,43,30.15,30.05,15,6,21,0.00
2012-4-9,86.8,72.5,61.6,65.0,61.7,57.0,87,70,42,30.10,29.99,13,4,19,0.00
2012-4-10,81.9,73.4,63.1,68.0,64.9,60.0,90,75,60,30.09,29.99,15,4,21,0.00
2012-4-11,79.3,75.0,67.2,69.0,66.4,64.0,89,75,61,30.09,30.00,17,5,23,0.00
2012-4-12,80.4,73.9,65.0,69.0,65.0,60.0,91,74,61,30.08,30.00,18,6,24,0.00
2012-4-13,83.2,74.4,66.5,72.0,67.4,61.0,92,79,66,30.11,30.01,16,4,18,0.00
2012-4-14,82.6,74.2,68.6,71.0,67.3,64.0,92,79,67,30.20,30.07,24,8,28,0.00
2012-4-15,87.0,74.8,65.4,67.0,63.3,61.0,86,69,45,30.20,30.11,17,6,25,0.00
2012-4-16,87.7,75.9,65.3,67.0,63.2,59.0,83,66,43,30.18,30.10,17,7,23,0.00
2012-4-17,87.1,76.0,66.6,69.0,64.1,61.0,83,68,44,30.16,30.05,15,6,19,0.00
2012-4-18,82.9,75.3,66.5,71.0,66.6,62.0,87,75,57,30.09,29.96,19,7,22,0.00
2012-4-19,83.2,76.8,69.8,73.0,70.0,67.0,90,80,65,30.00,29.90,16,5,20,0.00
2012-4-20,83.6,77.2,70.7,74.0,71.2,68.0,92,82,68,29.94,29.83,18,5,25,0.00
2012-4-21,74.1,70.7,68.8,69.0,67.7,66.0,94,90,82,29.89,29.65,27,8,36,0.12
2012-4-22,78.8,74.9,69.3,73.0,67.2,61.0,94,77,66,29.79,29.58,28,14,46,0.01
2012-4-23,76.5,71.8,67.9,61.0,56.5,53.0,69,59,50,29.95,29.78,24,10,27,0.01
2012-4-24,72.4,67.3,58.9,54.0,50.1,43.0,78,55,40,30.07,29.92,22,7,28,0.00
2012-4-25,77.7,67.7,53.7,59.0,53.8,47.0,80,63,40,30.14,30.05,13,4,18,0.00
2012-4-26,80.2,70.6,58.6,63.0,60.0,55.0,89,71,51,30.16,30.06,12,3,19,0.00
2012-4-27,87.0,74.9,62.0,70.0,65.5,59.0,92,74,51,30.13,30.02,12,3,17,0.00
2012-4-28,89.7,76.3,69.8,76.0,70.8,67.0,93,83,59,30.09,30.02,19,4,34,0.26
2012-4-29,77.3,73.8,71.9,73.0,70.4,69.0,94,89,85,30.08,29.99,15,7,22,0.05
2012-4-30,82.5,74.7,70.2,74.0,70.0,67.0,92,86,71,30.06,29.97,29,11,35,0.08
2012-5-1,88.8,78.0,72.2,76.0,72.0,70.0,92,82,61,30.05,29.97,18,8,26,0.03
2012-5-2,87.3,76.8,71.5,75.0,71.8,69.0,93,85,63,30.07,30.00,16,6,24,0.54
2012-5-3,88.2,78.1,70.6,75.0,71.6,69.0,94,81,57,30.10,30.01,15,6,21,0.54
2012-5-4,84.1,77.4,71.6,73.0,71.5,69.0,93,82,65,30.09,29.99,11,4,15,0.00
2012-5-5,82.8,77.1,68.7,73.0,70.9,65.0,92,81,70,30.04,29.94,11,3,17,0.00
2012-5-6,83.5,77.7,70.5,74.0,71.7,68.0,92,82,68,30.00,29.91,13,4,18,0.00
2012-5-7,83.2,77.8,71.1,75.0,72.0,69.0,94,82,70,29.95,29.87,13,4,19,0.00
2012-5-8,83.4,77.4,72.1,75.0,72.4,70.0,94,85,72,29.94,29.87,12,3,21,0.03
2012-5-9,84.8,78.6,72.5,76.0,73.4,69.0,93,84,68,29.92,29.83,15,5,21,0.02
2012-5-10,82.9,79.8,77.2,76.0,73.9,72.0,89,82,74,29.93,29.81,18,8,25,0.01
2012-5-11,91.0,78.5,68.6,76.0,70.8,64.0,90,77,55,30.09,29.91,15,5,16,0.01
2012-5-12,94.5,81.4,73.0,76.0,71.4,68.0,91,73,48,30.15,30.05,17,8,21,0.00
2012-5-13,92.6,77.9,69.9,75.0,70.1,67.0,93,78,43,30.12,30.00,14,5,23,1.05
2012-5-14,86.5,78.3,71.6,76.0,72.3,70.0,95,82,66,30.07,29.93,14,4,18,1.05
2012-5-15,87.0,79.6,72.6,78.0,73.2,69.0,89,81,67,30.03,29.95,12,4,20,0.00
2012-5-16,81.5,77.0,73.6,75.0,71.8,69.0,92,84,72,30.03,29.92,10,2,21,0.11
2012-5-17,82.7,77.1,71.9,76.0,72.6,69.0,95,86,76,29.98,29.89,13,4,16,0.04
2012-5-18,83.6,79.2,73.1,76.0,73.8,71.0,93,84,75,29.96,29.89,14,4,23,0.16
2012-5-19,86.0,78.4,71.9,74.0,71.5,67.0,93,80,64,29.97,29.87,12,4,18,0.00
2012-5-20,88.2,77.8,69.7,75.0,71.6,67.0,95,82,62,29.98,29.90,15,6,19,0.00
2012-5-21,85.2,78.1,70.9,75.0,72.0,69.0,93,82,66,30.00,29.92,18,5,21,0.00
2012-5-22,86.6,78.8,72.1,72.0,67.9,63.0,85,71,46,29.98,29.90,16,4,21,0.00
2012-5-23,87.9,79.1,73.8,77.0,73.5,70.0,93,83,65,29.93,29.81,18,4,21,0.01
2012-5-24,93.1,81.1,72.5,79.0,73.8,70.0,94,79,60,29.92,29.82,16,6,20,0.01
2012-5-25,89.7,80.9,73.4,77.0,74.0,70.0,91,80,63,30.04,29.89,11,4,19,0.17
2012-5-26,92.7,80.9,73.7,78.0,74.5,71.0,95,82,57,30.06,29.94,16,6,19,0.17
2012-5-27,86.1,80.5,73.2,77.0,74.6,71.0,92,82,72,29.99,29.89,16,5,24,0.00
2012-5-28,87.0,83.6,81.0,76.0,75.0,73.0,80,75,65,29.97,29.88,17,6,22,0.00
2012-5-29,86.1,81.4,74.9,77.0,74.6,72.0,90,80,72,29.98,29.92,18,5,19,0.00
2012-5-30,85.9,82.8,80.3,77.0,75.0,73.0,82,77,70,29.96,29.87,16,7,22,0.00
2012-5-31,85.1,81.2,77.0,76.0,73.9,71.0,88,79,68,29.97,29.87,14,3,17,0.02
2012-6-1,82.8,78.2,73.5,78.0,74.4,72.0,94,88,80,29.97,29.87,18,7,23,0.08
2012-6-2,84.8,81.4,77.7,77.0,75.0,74.0,90,81,71,30.01,29.90,15,7,22,0.08
2012-6-3,86.3,81.9,76.9,77.0,75.2,73.0,89,80,71,30.06,29.96,16,6,21,0.00
2012-6-4,85.2,81.0,73.7,78.0,75.2,71.0,93,83,74,30.02,29.90,15,5,18,0.00
2012-6-5,87.0,83.8,82.0,79.0,77.5,76.0,86,81,76,29.92,29.83,15,6,18,0.00
2012-6-6,85.4,81.7,74.6,78.0,75.6,69.0,88,81,74,29.96,29.86,19,6,23,0.03
2012-6-7,87.5,83.2,77.8,79.0,76.2,70.0,90,79,72,29.98,29.90,19,7,26,0.03
2012-6-8,88.3,84.0,78.3,81.0,78.3,74.0,88,83,75,29.98,29.91,15,6,19,0.00
2012-6-9,90.0,81.4,72.7,80.0,75.5,71.0,94,83,67,30.03,29.93,12,5,21,1.24
2012-6-10,93.1,82.1,76.2,81.0,76.3,72.0,94,83,64,30.12,29.99,13,4,22,0.46
2012-6-11,97.4,84.9,76.2,79.0,75.8,71.0,95,76,53,30.12,30.03,14,6,16,0.46
2012-6-12,92.1,82.0,72.6,78.0,73.6,69.0,90,76,56,30.09,29.96,15,5,19,0.00
2012-6-13,88.1,82.2,74.9,77.0,74.5,70.0,86,77,68,29.99,29.91,16,5,21,0.00
2012-6-14,87.7,83.6,79.2,78.0,76.7,75.0,90,80,71,30.02,29.90,19,6,23,0.00
2012-6-15,89.9,80.5,73.4,78.0,74.1,70.0,92,81,66,30.03,29.92,17,7,32,0.06
2012-6-16,93.6,80.0,73.0,77.0,73.3,71.0,94,81,54,30.03,29.94,19,6,22,0.10
2012-6-17,93.9,81.1,71.2,74.0,70.4,69.0,93,72,47,30.04,29.91,19,7,23,0.10
2012-6-18,95.2,81.5,70.1,72.0,68.4,66.0,87,66,46,30.02,29.94,17,8,22,0.00
2012-6-19,87.1,80.0,73.1,74.0,71.1,68.0,86,75,61,30.03,29.95,23,10,23,0.00
2012-6-20,84.7,79.4,76.1,77.0,74.9,73.0,94,86,77,29.99,29.92,19,7,21,0.12
2012-6-21,86.8,79.0,75.0,79.0,75.2,73.0,94,88,70,29.97,29.87,17,6,23,0.19
2012-6-22,80.5,76.7,74.0,77.0,74.9,73.0,95,94,87,29.96,29.82,15,4,18,0.45
2012-6-23,79.7,76.2,72.9,78.0,74.6,72.0,96,95,92,29.96,29.84,12,5,26,0.49
2012-6-24,83.7,80.1,75.0,80.0,77.7,73.0,96,92,87,29.94,29.78,29,14,38,0.35
2012-6-25,85.1,82.5,76.9,79.0,77.5,73.0,90,85,80,29.82,29.74,31,20,44,0.08
2012-6-26,85.6,82.4,77.4,79.0,77.9,75.0,92,86,81,29.77,29.68,32,18,42,0.40
2012-6-27,85.6,82.9,80.1,81.0,78.2,76.0,89,86,80,30.00,29.77,20,10,33,0.40
2012-6-28,86.9,81.5,75.1,77.0,75.4,73.0,94,82,69,30.08,30.00,14,3,17,0.00
2012-6-29,87.0,81.8,75.3,76.0,74.4,72.0,92,78,62,30.07,29.97,14,4,19,0.00
2012-6-30,86.8,82.9,77.6,79.0,76.6,74.0,90,81,73,30.03,29.96,16,4,22,0.00
2012-7-1,87.7,83.1,76.8,79.0,76.9,74.0,93,82,71,30.10,30.00,13,3,17,0.00
2012-7-2,90.7,83.9,77.6,79.0,76.5,74.0,92,78,64,30.13,30.00,12,3,18,0.00
2012-7-3,90.6,83.1,74.5,78.0,74.7,72.0,91,77,56,30.08,30.00,14,3,17,0.00
2012-7-4,90.6,80.9,76.3,79.0,75.1,72.0,91,82,62,30.10,30.01,11,2,24,0.40
2012-7-5,88.2,78.8,73.0,77.0,73.6,70.0,92,84,64,30.07,30.00,11,2,19,0.36
2012-7-6,90.0,78.4,72.5,79.0,74.3,70.0,94,87,68,30.06,30.00,12,3,17,0.21
2012-7-7,93.3,80.1,73.6,80.0,75.7,72.0,95,87,61,30.09,30.03,13,3,18,0.26
2012-7-8,92.4,80.2,74.1,80.0,75.1,72.0,95,85,59,30.09,30.02,13,3,25,0.34
2012-7-9,89.2,79.7,73.4,79.0,74.6,71.0,95,85,65,30.06,29.96,14,2,22,0.08
2012-7-10,91.5,80.6,74.9,79.0,75.2,71.0,93,84,62,30.04,29.95,17,4,25,0.42
2012-7-11,87.8,79.5,72.9,77.0,74.0,71.0,94,84,64,30.05,29.97,13,4,16,0.04
2012-7-12,87.0,80.6,74.8,77.0,75.4,73.0,94,84,71,30.03,29.96,10,3,15,0.13
2012-7-13,88.5,78.7,75.3,79.0,75.3,73.0,94,89,69,30.07,29.97,10,2,17,0.85
2012-7-14,90.2,78.9,74.0,78.0,75.2,73.0,96,88,65,30.08,29.99,14,4,21,0.23
2012-7-15,87.7,79.8,74.1,77.0,74.7,72.0,96,85,66,30.11,30.03,20,5,21,0.23
2012-7-16,86.3,80.5,74.0,79.0,75.2,72.0,95,84,73,30.10,29.98,10,3,14,0.00
2012-7-17,86.4,80.1,75.5,77.0,74.8,73.0,94,84,73,30.06,29.98,20,4,26,0.02
2012-7-18,88.7,82.8,75.5,80.0,77.0,73.0,93,83,72,30.13,30.01,11,4,16,0.02
2012-7-19,91.1,84.8,78.5,81.0,79.1,76.0,94,83,69,30.18,30.09,13,3,16,0.00
2012-7-20,92.4,84.1,77.9,81.0,77.9,75.0,92,82,62,30.14,30.03,14,4,16,0.14
2012-7-21,92.7,80.8,75.8,80.0,76.8,74.0,95,88,66,30.10,30.02,10,3,28,0.46
2012-7-22,89.5,79.2,75.2,81.0,76.0,72.0,95,90,74,30.14,30.04,18,5,18,0.08
2012-7-23,88.8,81.4,74.6,81.0,76.5,73.0,95,85,73,30.16,30.09,18,5,21,0.08
2012-7-24,89.0,82.8,76.6,81.0,76.9,73.0,94,83,73,30.15,30.04,13,2,16,0.00
2012-7-25,88.9,83.9,77.8,80.0,77.3,74.0,90,80,72,30.07,30.01,10,3,16,0.00
2012-7-26,89.4,84.1,77.7,80.0,77.9,75.0,92,82,70,30.06,29.99,11,3,18,0.00
2012-7-27,89.4,83.5,78.0,79.0,77.0,74.0,92,81,67,30.10,30.00,14,3,19,0.00
2012-7-28,89.0,83.0,78.3,80.0,76.7,75.0,92,81,69,30.12,30.04,12,2,20,0.06
2012-7-29,89.3,84.0,78.3,80.0,76.7,74.0,91,79,68,30.10,30.00,14,4,17,0.06
2012-7-30,89.0,83.7,78.0,80.0,77.0,75.0,91,80,70,30.07,30.00,18,4,22,0.00
2012-7-31,89.3,83.3,75.4,79.0,76.5,72.0,91,80,69,30.06,29.99,13,3,19,0.00
2012-8-1,89.7,84.3,77.5,80.0,77.2,75.0,91,80,70,30.04,29.96,16,4,18,0.00
2012-8-2,90.3,83.6,76.5,79.0,76.5,73.0,95,79,65,30.01,29.93,16,4,24,0.33
2012-8-3,92.6,82.8,75.7,79.0,75.5,73.0,92,79,56,30.01,29.93,16,4,29,0.00
2012-8-4,95.0,82.8,75.1,80.0,76.1,72.0,94,81,59,30.06,29.95,15,5,25,0.11
2012-8-5,93.2,80.9,76.3,79.0,76.1,74.0,94,86,61,30.08,30.01,16,4,17,0.26
2012-8-6,90.9,80.7,76.4,80.0,76.7,75.0,95,88,65,30.07,29.97,19,5,30,0.18
2012-8-7,95.8,83.7,75.8,80.0,77.2,74.0,96,82,56,30.04,29.95,14,6,20,0.01
2012-8-8,93.1,84.3,77.8,80.0,77.1,73.0,93,79,62,30.05,29.96,11,4,18,0.06
2012-8-9,93.5,81.9,75.2,82.0,76.8,70.0,93,85,66,30.05,29.91,18,4,21,0.37
2012-8-10,91.5,78.6,73.2,79.0,74.9,72.0,96,89,64,30.01,29.93,15,3,29,1.16
2012-8-11,87.6,79.5,74.8,79.0,75.8,73.0,95,88,73,30.05,29.94,8,2,15,0.09
2012-8-12,88.1,81.0,76.7,80.0,76.7,74.0,93,87,74,30.09,29.97,23,2,31,0.88
2012-8-13,89.6,82.5,76.9,81.0,77.1,74.0,95,84,71,30.09,30.00,10,3,15,0.00
2012-8-14,91.8,83.0,75.9,80.0,76.7,74.0,94,82,66,30.06,29.97,12,3,19,0.00
2012-8-15,91.0,82.5,75.9,82.0,77.5,74.0,94,85,69,30.06,29.97,10,4,17,0.22
2012-8-16,90.8,83.1,78.0,82.0,78.3,76.0,95,86,69,30.10,30.00,8,2,34,0.79
2012-8-17,88.8,83.5,78.8,80.0,77.9,75.0,93,83,70,30.06,29.96,13,3,16,0.79
2012-8-18,89.4,83.7,77.7,80.0,77.2,75.0,92,81,66,30.01,29.92,14,4,18,0.10
2012-8-19,89.6,84.6,78.2,80.0,77.8,76.0,93,80,70,30.02,29.95,16,4,23,0.10
2012-8-20,90.1,85.8,81.3,80.0,78.4,77.0,89,79,68,30.03,29.94,16,6,23,0.00
2012-8-21,90.2,84.2,74.8,80.0,77.3,70.0,93,80,66,30.12,29.98,25,6,40,1.07
2012-8-22,90.1,81.3,73.4,80.0,75.1,71.0,95,82,66,30.13,30.02,12,4,21,0.01
2012-8-23,92.8,80.4,73.8,79.0,74.0,71.0,93,81,64,30.09,30.00,15,5,24,0.43
2012-8-24,96.6,83.2,75.3,79.0,74.6,71.0,93,76,53,30.04,29.93,17,7,27,0.43
2012-8-25,83.9,79.5,74.2,78.0,74.3,71.0,91,84,76,30.00,29.89,16,8,21,0.00
2012-8-26,82.5,79.1,75.7,78.0,76.4,74.0,96,91,83,29.91,29.65,28,13,34,0.28
2012-8-27,86.9,82.4,77.9,81.0,78.9,76.0,95,89,80,29.89,29.63,37,17,48,0.36
2012-8-28,87.6,84.4,79.9,81.0,79.4,77.0,92,85,76,29.99,29.88,25,14,34,0.84
2012-8-29,87.9,82.2,78.6,80.0,75.9,-99.9,95,84,72,30.01,29.92,20,-6,24,0.84
2012-8-30,91.0,83.2,77.5,80.0,77.3,75.0,94,83,63,30.10,29.96,11,3,19,0.00
2012-8-31,96.2,83.0,76.9,82.0,77.8,75.0,94,85,61,30.15,30.07,13,3,19,0.18
2012-9-1,97.6,85.4,76.9,82.0,77.4,74.0,95,78,52,30.13,30.01,13,5,21,0.00
2012-9-2,95.5,84.0,74.9,77.0,75.1,73.0,92,76,54,30.07,29.95,9,4,14,0.00
2012-9-3,89.9,82.0,74.1,79.0,75.1,71.0,92,80,64,30.05,29.97,12,4,17,0.00
2012-9-4,88.3,82.8,76.4,79.0,76.6,74.0,92,82,71,30.03,29.95,11,3,16,0.00
2012-9-5,88.2,82.0,76.0,80.0,76.0,73.0,92,82,72,30.02,29.93,15,5,24,0.15
2012-9-6,88.4,80.4,73.4,80.0,74.9,71.0,94,84,72,30.03,29.96,14,4,20,0.01
2012-9-7,88.1,82.0,76.0,79.0,76.1,73.0,93,82,72,30.01,29.93,11,3,19,0.00
2012-9-8,88.0,82.8,77.1,79.0,77.0,75.0,93,83,73,29.99,29.90,14,3,17,0.01
2012-9-9,87.8,84.7,82.3,80.0,77.8,76.0,84,79,71,30.00,29.93,15,8,23,0.00
2012-9-10,88.0,84.0,80.2,80.0,77.7,75.0,86,81,74,30.04,29.95,20,5,23,0.01
2012-9-11,92.9,81.4,75.5,80.0,76.3,73.0,93,85,62,30.09,29.99,15,4,24,0.03
2012-9-12,95.3,83.5,75.9,78.0,75.5,74.0,95,78,54,30.08,29.98,16,7,22,0.00
2012-9-13,87.9,81.3,77.0,78.0,75.1,73.0,89,82,70,30.06,29.96,18,8,22,0.00
2012-9-14,94.5,80.9,74.9,79.0,75.3,73.0,94,84,57,30.04,29.94,13,5,21,0.14
2012-9-15,92.4,80.2,74.6,80.0,76.3,73.0,96,88,64,30.05,29.97,11,4,16,0.22
2012-9-16,89.1,79.9,75.8,79.0,75.8,74.0,95,88,69,30.04,29.94,13,5,19,0.21
2012-9-17,86.6,79.6,74.7,80.0,76.1,73.0,96,89,74,30.02,29.91,21,4,24,1.20
2012-9-18,87.4,80.2,76.1,81.0,76.9,74.0,95,90,79,30.00,29.91,18,6,37,0.90
2012-9-19,87.2,80.8,75.6,79.0,75.8,74.0,95,85,66,30.05,29.93,8,2,13,0.01
2012-9-20,91.2,80.9,75.9,80.0,75.2,72.0,94,83,63,30.03,29.93,16,3,23,0.28
2012-9-21,91.0,78.2,74.0,80.0,74.4,72.0,95,88,63,30.00,29.90,12,3,23,0.61
2012-9-22,85.7,77.1,73.6,79.0,74.5,72.0,97,92,75,30.04,29.93,11,4,16,0.06
2012-9-23,92.5,81.1,73.9,80.0,75.1,72.0,96,83,60,30.07,29.99,9,3,14,0.00
2012-9-24,91.5,80.4,73.2,78.0,73.9,70.0,94,81,60,30.09,29.98,11,3,15,0.00
2012-9-25,88.7,79.0,73.2,77.0,72.4,68.0,92,80,68,30.09,30.00,12,4,20,0.12
2012-9-26,94.7,80.9,74.3,81.0,75.1,72.0,94,83,60,30.10,30.01,9,4,11,0.00
2012-9-27,95.7,81.4,74.3,80.0,74.7,71.0,95,81,56,30.10,29.98,15,4,23,0.00
2012-9-28,93.3,81.2,75.7,80.0,75.9,73.0,95,84,64,30.05,29.92,17,5,19,0.00
2012-9-29,88.1,80.9,74.0,78.0,75.1,72.0,94,83,69,29.98,29.85,11,4,14,0.00
2012-9-30,90.6,80.9,75.1,79.0,75.3,73.0,93,83,62,29.92,29.79,12,3,18,0.02
2012-10-1,85.4,79.8,76.2,80.0,77.0,74.0,95,91,81,29.85,29.76,18,4,20,0.50
2012-10-2,86.4,79.3,76.4,80.0,76.5,75.0,95,91,77,30.04,29.84,17,6,28,0.50
2012-10-3,91.4,81.8,76.4,81.0,77.4,74.0,96,87,66,30.17,30.03,14,5,18,0.11
2012-10-4,92.5,82.7,76.5,82.0,77.0,74.0,95,84,67,30.15,30.06,11,5,15,0.00
2012-10-5,92.7,80.3,73.4,82.0,76.3,70.0,95,88,65,30.11,29.92,14,6,24,0.25
2012-10-6,89.4,79.6,74.0,81.0,75.4,72.0,96,87,73,29.99,29.85,10,3,13,0.01
2012-10-7,93.8,79.5,74.9,80.0,75.3,73.0,95,87,61,29.98,29.89,15,4,22,0.29
2012-10-8,90.9,79.2,74.7,80.0,75.4,72.0,97,89,67,30.02,29.91,14,4,18,0.06
2012-10-9,91.8,80.2,73.5,80.0,75.6,72.0,96,86,66,30.03,29.96,14,4,17,0.00
2012-10-10,92.1,80.8,75.1,80.0,75.9,74.0,95,85,62,30.08,29.99,13,5,15,0.01
2012-10-11,92.3,80.2,70.8,74.0,71.3,68.0,91,76,54,30.14,30.06,12,6,18,0.00
2012-10-12,90.4,78.5,70.4,74.0,68.3,65.0,91,72,53,30.14,30.06,20,8,21,0.00
2012-10-13,89.8,78.2,70.1,74.0,69.2,66.0,88,75,58,30.13,30.02,20,9,25,0.00
2012-10-14,90.7,79.2,72.2,78.0,73.3,68.0,93,83,64,30.07,29.95,17,8,25,0.00
2012-10-15,89.6,79.9,75.1,80.0,75.7,73.0,96,87,70,29.96,29.80,18,5,24,0.00
2012-10-16,88.0,79.8,73.7,76.0,73.5,71.0,94,81,64,29.88,29.78,15,5,17,0.00
2012-10-17,83.9,77.0,72.1,78.0,73.2,70.0,95,88,77,29.89,29.81,11,3,32,1.20
2012-10-18,85.4,78.2,72.9,78.0,75.1,71.0,96,90,78,29.89,29.81,9,4,15,0.12
2012-10-19,86.4,80.1,75.2,79.0,76.1,74.0,96,87,75,29.89,29.82,10,2,14,0.34
2012-10-20,90.9,80.4,74.4,78.0,73.8,69.0,95,81,61,29.95,29.84,9,2,15,0.00
2012-10-21,92.1,77.1,66.1,72.0,64.5,58.0,84,66,46,30.02,29.93,13,6,16,0.00
2012-10-22,89.5,76.6,66.6,72.0,67.4,63.0,90,75,54,30.04,29.93,17,7,23,0.00
2012-10-23,91.6,78.7,69.1,73.0,69.5,66.0,89,75,49,30.01,29.89,22,7,22,0.00
2012-10-24,91.1,79.2,72.5,75.0,71.6,69.0,92,78,55,29.97,29.83,22,8,29,0.00
2012-10-25,82.9,77.0,73.8,75.0,72.3,69.0,92,85,77,29.85,29.73,22,8,24,0.01
2012-10-26,86.1,77.9,73.9,73.0,69.7,67.0,90,76,56,29.73,29.59,24,8,35,0.00
2012-10-27,81.0,77.5,74.4,70.0,67.3,65.0,79,71,63,29.75,29.61,30,14,39,0.00
2012-10-28,78.2,75.6,71.5,70.0,65.4,59.0,81,71,59,29.82,29.72,26,14,33,0.00
2012-10-29,71.8,68.3,63.2,61.0,55.4,51.0,77,64,54,29.91,29.80,25,10,32,0.00
2012-10-30,71.4,66.9,56.6,57.0,53.2,47.0,72,62,55,30.02,29.85,21,9,29,0.00
2012-10-31,77.1,70.3,63.6,61.0,58.1,54.0,83,66,55,30.08,30.00,18,4,19,0.00
2012-11-1,79.0,69.7,60.7,68.0,63.0,57.0,93,80,64,30.09,30.00,13,3,18,0.00
2012-11-2,83.5,72.2,65.4,68.0,62.4,53.0,94,74,39,30.11,30.02,10,3,15,0.01
2012-11-3,88.2,70.4,58.7,68.0,61.6,56.0,93,76,40,30.16,30.06,11,3,14,0.00
2012-11-4,83.8,70.5,60.3,70.0,62.6,58.0,96,78,51,30.13,30.01,10,2,15,0.00
2012-11-5,77.6,71.4,65.6,69.0,66.2,63.0,92,84,71,30.04,29.94,9,2,13,0.00
2012-11-6,78.2,70.8,65.9,70.0,67.3,64.0,94,88,71,29.96,29.85,14,2,19,0.11
2012-11-7,71.6,66.9,62.4,67.0,58.7,53.0,92,75,63,30.02,29.87,19,6,26,0.00
2012-11-8,73.6,63.6,54.4,53.0,47.2,42.0,80,58,35,30.17,29.99,18,6,24,0.00
2012-11-9,82.4,66.0,53.1,58.0,51.8,45.0,79,63,36,30.23,30.13,12,6,19,0.00
2012-11-10,80.7,68.5,59.3,62.0,57.7,54.0,86,70,49,30.28,30.17,15,6,19,0.00
2012-11-11,85.4,71.5,61.7,65.0,60.8,57.0,86,71,48,30.24,30.16,18,6,25,0.00
2012-11-12,84.9,73.3,65.4,73.0,66.8,60.0,93,81,63,30.21,30.12,14,6,19,0.00
2012-11-13,87.1,74.2,66.0,73.0,67.0,64.0,94,79,54,30.15,30.06,11,5,17,0.00
2012-11-14,86.6,72.8,65.8,72.0,67.0,64.0,94,82,60,30.14,30.05,13,4,15,0.00
2012-11-15,83.4,72.2,64.9,72.0,67.2,63.0,95,84,63,30.12,30.04,13,5,17,0.00
2012-11-16,78.4,68.1,64.3,68.0,63.4,61.0,92,85,68,30.13,30.05,13,6,18,0.00
2012-11-17,88.1,72.4,62.3,70.0,64.7,60.0,94,78,53,30.11,30.02,15,8,18,0.00
2012-11-18,82.4,71.4,64.7,70.0,64.6,60.0,92,80,64,30.14,30.06,15,8,21,0.00
2012-11-19,82.5,66.4,58.3,64.0,58.5,55.0,90,77,45,30.16,30.04,15,7,19,0.00
2012-11-20,71.7,64.8,59.6,65.0,60.2,56.0,91,85,75,30.09,29.97,15,5,19,0.00
2012-11-21,79.9,66.9,58.1,60.0,55.2,51.0,87,68,47,30.09,29.97,14,5,20,0.00
2012-11-22,79.4,65.4,55.0,53.0,47.4,42.0,82,56,29,30.16,30.05,13,6,22,0.00
2012-11-23,77.1,63.7,53.8,57.0,50.1,40.0,76,62,46,30.20,30.08,17,5,18,0.00
2012-11-24,74.8,64.5,52.5,63.0,56.5,48.0,89,76,55,30.14,30.03,15,4,22,0.00
2012-11-25,73.6,61.3,51.3,58.0,52.9,48.0,90,75,52,30.17,30.07,13,3,15,0.00
2012-11-26,79.6,65.7,52.0,66.0,58.8,49.0,93,79,58,30.20,30.11,10,3,14,0.00
2012-11-27,80.7,70.6,62.2,70.0,65.0,60.0,93,83,65,30.18,30.10,16,4,19,0.00
2012-11-28,82.5,71.8,64.5,69.0,65.0,60.0,94,80,59,30.21,30.11,13,4,16,0.00
2012-11-29,86.5,69.9,59.3,67.0,61.5,57.0,93,77,48,30.23,30.13,14,8,20,0.00
2012-11-30,79.8,70.1,63.7,66.0,62.7,61.0,90,78,62,30.22,30.12,16,7,22,0.00
2012-12-1,86.7,72.0,61.3,67.0,62.1,58.0,89,73,44,30.21,30.13,15,6,23,0.00
2012-12-2,87.7,73.2,63.8,70.0,64.4,61.0,94,76,45,30.24,30.13,15,6,18,0.00
2012-12-3,87.2,72.1,61.3,69.0,62.7,55.0,94,74,47,30.24,30.14,12,6,18,0.00
2012-12-4,84.5,69.8,59.2,66.0,61.0,56.0,92,75,50,30.25,30.15,12,5,17,0.00
2012-12-5,79.1,69.6,61.4,69.0,63.5,58.0,92,81,67,30.17,30.03,9,3,11,0.00
2012-12-6,85.7,71.6,64.7,71.0,66.4,62.0,93,84,59,30.04,29.91,9,3,12,0.09
2012-12-7,80.9,70.8,63.2,72.0,66.1,62.0,96,86,69,30.00,29.91,9,3,13,0.01
2012-12-8,82.5,73.4,65.9,74.0,68.7,64.0,95,85,70,30.04,29.96,10,3,17,0.00
2012-12-9,83.8,74.1,65.8,76.0,70.3,64.0,95,88,75,30.09,30.00,9,2,11,0.00
2012-12-10,82.7,76.3,69.8,77.0,73.1,68.0,95,90,81,30.02,29.90,23,8,27,0.26
2012-12-11,79.4,74.6,71.5,76.0,72.8,70.0,96,93,89,30.05,29.94,17,5,20,1.10
2012-12-12,78.9,76.1,74.0,76.0,74.3,72.0,96,94,90,30.07,29.99,18,6,21,0.03
2012-12-13,73.8,70.4,64.0,72.0,67.1,60.0,96,89,80,30.15,30.03,14,6,19,0.00
2012-12-14,83.2,69.9,60.8,69.0,63.2,58.0,93,80,58,30.17,30.06,14,8,21,0.00
2012-12-15,85.7,71.6,62.0,72.0,64.8,60.0,95,80,57,30.12,30.02,10,5,13,0.00
2012-12-16,81.1,72.1,63.4,71.0,66.5,61.0,94,83,65,30.06,29.95,9,3,14,0.00
2012-12-17,79.5,72.6,65.8,73.0,68.9,64.0,95,88,76,30.00,29.92,17,4,23,0.00
2012-12-18,79.0,73.3,68.3,74.0,70.9,67.0,96,92,83,30.04,29.91,11,3,17,0.00
2012-12-19,85.2,70.6,59.1,68.0,63.2,57.0,94,79,52,30.11,30.03,9,3,12,0.01
2012-12-20,80.7,71.9,63.4,71.0,66.2,60.0,93,83,63,30.10,29.96,20,6,25,0.00
2012-12-21,73.7,64.7,53.6,71.0,54.0,44.0,91,69,44,30.23,29.98,23,9,29,0.05
2012-12-22,69.1,55.9,47.0,45.0,40.6,36.0,79,59,30,30.31,30.21,12,4,19,0.00
2012-12-23,74.4,57.2,43.1,57.0,48.0,36.0,87,72,52,30.26,30.15,9,3,13,0.00
2012-12-24,75.5,64.4,52.7,63.0,57.6,50.0,93,80,61,30.15,30.00,16,3,18,0.00
2012-12-25,79.2,68.0,57.8,65.0,60.9,55.0,93,79,58,30.04,29.91,13,5,18,0.00
2012-12-26,78.3,70.6,64.5,73.0,66.8,59.0,95,87,80,30.02,29.86,21,9,30,0.08
2012-12-27,69.2,60.6,53.6,58.0,53.2,50.0,89,77,57,30.11,30.01,12,4,16,0.00
2012-12-28,80.0,67.4,51.8,71.0,62.2,48.0,90,84,70,30.08,29.95,13,7,17,0.00
2012-12-29,77.5,72.1,61.4,74.0,69.2,56.0,95,90,81,30.16,29.94,15,9,23,0.00
2012-12-30,69.2,57.8,47.7,55.0,48.5,42.0,84,72,50,30.32,30.16,15,8,24,0.00
2012-12-31,81.4,64.4,51.0,64.0,55.9,48.0,93,76,50,30.31,30.17,14,4,20,0.00
2013-1-1,79.8,69.8,62.0,67.0,62.3,58.0,88,78,61,30.21,30.05,20,6,30,0.00